Terug naar catalogus

STARLINK-32733

ActiefCommunicatieVLEO
NORAD 62477·PAYLOAD·🇺🇸 United States

Gelanceerd Dec 31, 2024 vanaf Cape Canaveral Space Force Station

Loading…

Volgende Passages (komende 24 uur)

TLE

VersSource: CelesTrak SupGP

Epoch: Sep 15, 2026, 02:10 UTC

1 62477C 24254R   26258.09076389 -.00015863  00000+0 -57452-3 0  2586
2 62477  43.0046  26.3489 0001936 268.2602  97.3475 15.27588231    10

Volg STARLINK-32733 in realtime met AllMySat

Download on the App Store